PWSweather.com
Personal Weather Stations
Station Observations
WEERALK
AlkmaarNL 1827 PE

AlkmaarNL 1827 PE

Lat: 52.6712679, Lon: 4.7682444

Elevation: 7

Station Type: Davis Vantage Pro2

Latest ConditionsUpdated 4:12:00 AM GMT+01:01 Thursday, Jun 30, 2016
Currently Today's Max Today's Min Today's Average
Temperature 58.6°F14.8°C 59.7°F15.4°C 58.6°F14.8°C 58.9°F14.9°C
Dew Point 56.8°F13.8°C 57.0°F13.9°C 55.4°F13.0°C 56.4°F13.6°C
Winds 6.0 mph SW9.7 kmh SW 10.0 mph WSW16.1 kmh WSW - 7.0 mph 11.3 kmh
Wind Gusts 14.0 mph22.5 kmh 18.0 mph29.0 kmh - -
Humidity 94% 94% 88% 91%
Pressure 29.74 in1007.1 mb 29.77 in1008.1 mb 29.74 in1007.1 mb -
Precipitation - 0.04 in1.0 mm - -
Hour Temp Dew Point Humidity Winds Wind Gusts Pressure Precip Precip Rate Daily Precip Total
04:12 AM 58.6°F14.8°C 56.8°F13.8°C 94% 6.0 mph SW9.7 kmh SW 14.0 mph22.5 kmh 29.74 in1007.1 mb 0.01 in0.3 mm 0.00 in0.0 mm 0.04 in1.0 mm
04:11 AM 58.6°F14.8°C 56.8°F13.8°C 94% 6.0 mph SW9.7 kmh SW 13.0 mph20.9 kmh 29.74 in1007.1 mb 0.01 in0.3 mm 0.00 in0.0 mm 0.04 in1.0 mm
04:10 AM 58.6°F14.8°C 56.8°F13.8°C 94% 6.0 mph SW9.7 kmh SW 13.0 mph20.9 kmh 29.74 in1007.1 mb 0.01 in0.3 mm 0.00 in0.0 mm 0.04 in1.0 mm
04:09 AM 58.6°F14.8°C 56.8°F13.8°C 94% 6.0 mph SW9.7 kmh SW 13.0 mph20.9 kmh 29.74 in1007.1 mb 0.01 in0.3 mm 0.00 in0.0 mm 0.04 in1.0 mm
04:08 AM 58.6°F14.8°C 56.8°F13.8°C 94% 6.0 mph SW9.7 kmh SW 13.0 mph20.9 kmh 29.74 in1007.1 mb 0.01 in0.3 mm 0.00 in0.0 mm 0.04 in1.0 mm
04:07 AM 58.6°F14.8°C 56.8°F13.8°C 94% 6.0 mph SW9.7 kmh SW 13.0 mph20.9 kmh 29.74 in1007.1 mb 0.01 in0.3 mm 0.00 in0.0 mm 0.04 in1.0 mm
04:06 AM 58.6°F14.8°C 56.8°F13.8°C 94% 6.0 mph SW9.7 kmh SW 14.0 mph22.5 kmh 29.74 in1007.1 mb 0.01 in0.3 mm 0.00 in0.0 mm 0.04 in1.0 mm
04:05 AM 58.6°F14.8°C 56.8°F13.8°C 94% 6.0 mph SW9.7 kmh SW 14.0 mph22.5 kmh 29.74 in1007.1 mb 0.01 in0.3 mm 0.00 in0.0 mm 0.04 in1.0 mm
04:04 AM 58.6°F14.8°C 56.8°F13.8°C 94% 6.0 mph SW9.7 kmh SW 14.0 mph22.5 kmh 29.74 in1007.1 mb 0.01 in0.3 mm 0.00 in0.0 mm 0.04 in1.0 mm
04:03 AM 58.6°F14.8°C 56.8°F13.8°C 94% 6.0 mph SW9.7 kmh SW 14.0 mph22.5 kmh 29.74 in1007.1 mb 0.01 in0.3 mm 0.60 in15.2 mm 0.04 in1.0 mm
04:02 AM 58.6°F14.8°C 56.8°F13.8°C 94% 6.0 mph SW9.7 kmh SW 14.0 mph22.5 kmh 29.74 in1007.1 mb 0.00 in0.0 mm 0.00 in0.0 mm 0.03 in0.8 mm
04:01 AM 58.6°F14.8°C 56.8°F13.8°C 94% 5.0 mph SW8.0 kmh SW 14.0 mph22.5 kmh 29.74 in1007.1 mb 0.00 in0.0 mm 0.00 in0.0 mm 0.03 in0.8 mm
04:00 AM 58.6°F14.8°C 56.8°F13.8°C 94% 5.0 mph SW8.0 kmh SW 14.0 mph22.5 kmh 29.74 in1007.1 mb 0.00 in0.0 mm 0.00 in0.0 mm 0.03 in0.8 mm
03:59 AM 58.6°F14.8°C 57.0°F13.9°C 94% 5.0 mph SW8.0 kmh SW 14.0 mph22.5 kmh 29.74 in1007.1 mb 0.00 in0.0 mm 0.00 in0.0 mm 0.03 in0.8 mm
03:58 AM 58.6°F14.8°C 57.0°F13.9°C 94% 5.0 mph SW8.0 kmh SW 14.0 mph22.5 kmh 29.74 in1007.1 mb 0.00 in0.0 mm 0.00 in0.0 mm 0.03 in0.8 mm
03:57 AM 58.6°F14.8°C 57.0°F13.9°C 94% 6.0 mph SW9.7 kmh SW 17.0 mph27.4 kmh 29.74 in1007.1 mb 0.00 in0.0 mm 0.00 in0.0 mm 0.03 in0.8 mm
03:56 AM 58.6°F14.8°C 57.0°F13.9°C 94% 6.0 mph SW9.7 kmh SW 17.0 mph27.4 kmh 29.74 in1007.1 mb 0.00 in0.0 mm 0.00 in0.0 mm 0.03 in0.8 mm
03:55 AM 58.6°F14.8°C 57.0°F13.9°C 94% 6.0 mph SW9.7 kmh SW 17.0 mph27.4 kmh 29.74 in1007.1 mb 0.00 in0.0 mm 0.00 in0.0 mm 0.03 in0.8 mm
03:54 AM 58.6°F14.8°C 57.0°F13.9°C 94% 6.0 mph SW9.7 kmh SW 17.0 mph27.4 kmh 29.74 in1007.1 mb 0.00 in0.0 mm 0.00 in0.0 mm 0.03 in0.8 mm
03:53 AM 58.6°F14.8°C 57.0°F13.9°C 94% 7.0 mph SW11.3 kmh SW 17.0 mph27.4 kmh 29.74 in1007.1 mb 0.00 in0.0 mm 0.00 in0.0 mm 0.03 in0.8 mm
03:52 AM 58.6°F14.8°C 57.0°F13.9°C 94% 7.0 mph SW11.3 kmh SW 17.0 mph27.4 kmh 29.74 in1007.1 mb 0.00 in0.0 mm 0.00 in0.0 mm 0.03 in0.8 mm
03:51 AM 58.6°F14.8°C 57.0°F13.9°C 94% 7.0 mph SW11.3 kmh SW 17.0 mph27.4 kmh 29.74 in1007.1 mb 0.00 in0.0 mm 0.00 in0.0 mm 0.03 in0.8 mm
03:50 AM 58.6°F14.8°C 57.0°F13.9°C 94% 7.0 mph SW11.3 kmh SW 17.0 mph27.4 kmh 29.74 in1007.1 mb 0.00 in0.0 mm 0.00 in0.0 mm 0.03 in0.8 mm
03:48 AM 58.7°F14.8°C 57.0°F13.9°C 94% 6.0 mph SW9.7 kmh SW 17.0 mph27.4 kmh 29.74 in1007.1 mb 0.00 in0.0 mm 0.00 in0.0 mm 0.03 in0.8 mm
03:47 AM 58.7°F14.8°C 57.0°F13.9°C 94% 10.0 mph WSW16.1 kmh WSW 17.0 mph27.4 kmh 29.74 in1007.1 mb 0.00 in0.0 mm 0.00 in0.0 mm 0.03 in0.8 mm
03:46 AM 58.6°F14.8°C 57.0°F13.9°C 94% 6.0 mph SW9.7 kmh SW 15.0 mph24.1 kmh 29.74 in1007.1 mb 0.00 in0.0 mm 0.00 in0.0 mm 0.03 in0.8 mm
03:45 AM 58.6°F14.8°C 57.0°F13.9°C 94% 6.0 mph SW9.7 kmh SW 15.0 mph24.1 kmh 29.74 in1007.1 mb 0.00 in0.0 mm 0.00 in0.0 mm 0.03 in0.8 mm
03:44 AM 58.6°F14.8°C 57.0°F13.9°C 94% 6.0 mph SW9.7 kmh SW 15.0 mph24.1 kmh 29.74 in1007.1 mb 0.01 in0.3 mm 0.00 in0.0 mm 0.03 in0.8 mm
03:43 AM 58.6°F14.8°C 57.0°F13.9°C 94% 6.0 mph SW9.7 kmh SW 15.0 mph24.1 kmh 29.74 in1007.1 mb 0.01 in0.3 mm 0.00 in0.0 mm 0.03 in0.8 mm
03:42 AM 58.6°F14.8°C 57.0°F13.9°C 94% 7.0 mph SW11.3 kmh SW 15.0 mph24.1 kmh 29.74 in1007.1 mb 0.01 in0.3 mm 0.00 in0.0 mm 0.03 in0.8 mm
03:41 AM 58.6°F14.8°C 57.0°F13.9°C 94% 7.0 mph SW11.3 kmh SW 18.0 mph29.0 kmh 29.74 in1007.1 mb 0.01 in0.3 mm 0.00 in0.0 mm 0.03 in0.8 mm
03:40 AM 58.8°F14.9°C 57.0°F13.9°C 94% 7.0 mph SW11.3 kmh SW 18.0 mph29.0 kmh 29.74 in1007.1 mb 0.01 in0.3 mm 0.00 in0.0 mm 0.03 in0.8 mm
03:39 AM 58.6°F14.8°C 57.0°F13.9°C 94% 7.0 mph SW11.3 kmh SW 18.0 mph29.0 kmh 29.74 in1007.1 mb 0.01 in0.3 mm 0.00 in0.0 mm 0.03 in0.8 mm
03:38 AM 58.6°F14.8°C 57.0°F13.9°C 94% 8.0 mph SW12.9 kmh SW 18.0 mph29.0 kmh 29.74 in1007.1 mb 0.01 in0.3 mm 0.00 in0.0 mm 0.03 in0.8 mm
03:37 AM 58.6°F14.8°C 57.0°F13.9°C 94% 8.0 mph SW12.9 kmh SW 18.0 mph29.0 kmh 29.74 in1007.1 mb 0.01 in0.3 mm 0.00 in0.0 mm 0.03 in0.8 mm
03:36 AM 58.6°F14.8°C 57.0°F13.9°C 94% 8.0 mph SW12.9 kmh SW 18.0 mph29.0 kmh 29.74 in1007.1 mb 0.01 in0.3 mm 0.00 in0.0 mm 0.03 in0.8 mm
03:35 AM 58.6°F14.8°C 57.0°F13.9°C 94% 8.0 mph SW12.9 kmh SW 18.0 mph29.0 kmh 29.74 in1007.1 mb 0.01 in0.3 mm 0.00 in0.0 mm 0.03 in0.8 mm
03:34 AM 58.6°F14.8°C 57.0°F13.9°C 94% 8.0 mph SW12.9 kmh SW 18.0 mph29.0 kmh 29.74 in1007.1 mb 0.01 in0.3 mm 0.00 in0.0 mm 0.03 in0.8 mm
03:33 AM 58.6°F14.8°C 57.0°F13.9°C 94% 8.0 mph SW12.9 kmh SW 18.0 mph29.0 kmh 29.74 in1007.1 mb 0.01 in0.3 mm 0.00 in0.0 mm 0.03 in0.8 mm
03:32 AM 58.6°F14.8°C 57.0°F13.9°C 94% 7.0 mph SW11.3 kmh SW 18.0 mph29.0 kmh 29.74 in1007.1 mb 0.01 in0.3 mm 0.00 in0.0 mm 0.03 in0.8 mm
03:31 AM 58.6°F14.8°C 57.0°F13.9°C 94% 7.0 mph SW11.3 kmh SW 16.0 mph25.7 kmh 29.74 in1007.1 mb 0.01 in0.3 mm 0.00 in0.0 mm 0.03 in0.8 mm
03:30 AM 58.6°F14.8°C 57.0°F13.9°C 94% 7.0 mph SW11.3 kmh SW 16.0 mph25.7 kmh 29.74 in1007.1 mb 0.01 in0.3 mm 0.00 in0.0 mm 0.03 in0.8 mm
03:29 AM 58.6°F14.8°C 57.0°F13.9°C 94% 7.0 mph SW11.3 kmh SW 16.0 mph25.7 kmh 29.74 in1007.1 mb 0.01 in0.3 mm 0.00 in0.0 mm 0.03 in0.8 mm
03:28 AM 58.6°F14.8°C 57.0°F13.9°C 94% 6.0 mph SW9.7 kmh SW 16.0 mph25.7 kmh 29.74 in1007.1 mb 0.01 in0.3 mm 0.00 in0.0 mm 0.03 in0.8 mm
03:27 AM 58.6°F14.8°C 57.0°F13.9°C 94% 6.0 mph SW9.7 kmh SW 15.0 mph24.1 kmh 29.74 in1007.1 mb 0.01 in0.3 mm 0.00 in0.0 mm 0.03 in0.8 mm
03:26 AM 58.6°F14.8°C 57.0°F13.9°C 94% 6.0 mph SW9.7 kmh SW 15.0 mph24.1 kmh 29.74 in1007.1 mb 0.01 in0.3 mm 0.00 in0.0 mm 0.03 in0.8 mm
03:25 AM 58.6°F14.8°C 57.0°F13.9°C 94% 7.0 mph SW11.3 kmh SW 15.0 mph24.1 kmh 29.74 in1007.1 mb 0.01 in0.3 mm 0.00 in0.0 mm 0.03 in0.8 mm
03:24 AM 58.6°F14.8°C 57.0°F13.9°C 94% 7.0 mph SW11.3 kmh SW 15.0 mph24.1 kmh 29.74 in1007.1 mb 0.01 in0.3 mm 0.00 in0.0 mm 0.03 in0.8 mm
03:23 AM 58.6°F14.8°C 57.0°F13.9°C 94% 7.0 mph SW11.3 kmh SW 15.0 mph24.1 kmh 29.74 in1007.1 mb 0.02 in0.5 mm 0.00 in0.0 mm 0.03 in0.8 mm
03:22 AM 58.6°F14.8°C 57.0°F13.9°C 94% 7.0 mph SW11.3 kmh SW 15.0 mph24.1 kmh 29.74 in1007.1 mb 0.02 in0.5 mm 0.00 in0.0 mm 0.03 in0.8 mm
03:21 AM 58.6°F14.8°C 57.0°F13.9°C 94% 7.0 mph SW11.3 kmh SW 15.0 mph24.1 kmh 29.74 in1007.1 mb 0.02 in0.5 mm 0.00 in0.0 mm 0.03 in0.8 mm
03:20 AM 58.6°F14.8°C 57.0°F13.9°C 94% 7.0 mph SW11.3 kmh SW 15.0 mph24.1 kmh 29.74 in1007.1 mb 0.02 in0.5 mm 0.00 in0.0 mm 0.03 in0.8 mm
03:19 AM 58.6°F14.8°C 57.0°F13.9°C 94% 7.0 mph SW11.3 kmh SW 16.0 mph25.7 kmh 29.74 in1007.1 mb 0.02 in0.5 mm 0.00 in0.0 mm 0.03 in0.8 mm
03:18 AM 58.6°F14.8°C 57.0°F13.9°C 94% 7.0 mph SW11.3 kmh SW 16.0 mph25.7 kmh 29.74 in1007.1 mb 0.02 in0.5 mm 0.00 in0.0 mm 0.03 in0.8 mm
03:17 AM 58.6°F14.8°C 57.0°F13.9°C 94% 7.0 mph SW11.3 kmh SW 16.0 mph25.7 kmh 29.74 in1007.1 mb 0.02 in0.5 mm 0.00 in0.0 mm 0.03 in0.8 mm
03:16 AM 58.6°F14.8°C 57.0°F13.9°C 94% 7.0 mph SW11.3 kmh SW 16.0 mph25.7 kmh 29.74 in1007.1 mb 0.02 in0.5 mm 0.00 in0.0 mm 0.03 in0.8 mm
03:15 AM 58.6°F14.8°C 57.0°F13.9°C 94% 7.0 mph SW11.3 kmh SW 16.0 mph25.7 kmh 29.74 in1007.1 mb 0.02 in0.5 mm 0.00 in0.0 mm 0.03 in0.8 mm
03:14 AM 58.6°F14.8°C 57.0°F13.9°C 94% 7.0 mph SW11.3 kmh SW 16.0 mph25.7 kmh 29.74 in1007.1 mb 0.02 in0.5 mm 0.00 in0.0 mm 0.03 in0.8 mm
03:13 AM 58.6°F14.8°C 57.0°F13.9°C 94% 8.0 mph SW12.9 kmh SW 16.0 mph25.7 kmh 29.74 in1007.1 mb 0.02 in0.5 mm 0.00 in0.0 mm 0.03 in0.8 mm
03:12 AM 58.6°F14.8°C 57.0°F13.9°C 94% 8.0 mph SW12.9 kmh SW 16.0 mph25.7 kmh 29.74 in1007.1 mb 0.02 in0.5 mm 0.00 in0.0 mm 0.03 in0.8 mm
03:11 AM 58.6°F14.8°C 57.0°F13.9°C 94% 8.0 mph SW12.9 kmh SW 16.0 mph25.7 kmh 29.74 in1007.1 mb 0.02 in0.5 mm 0.00 in0.0 mm 0.03 in0.8 mm
03:10 AM 58.6°F14.8°C 57.0°F13.9°C 94% 7.0 mph SW11.3 kmh SW 16.0 mph25.7 kmh 29.74 in1007.1 mb 0.02 in0.5 mm 0.00 in0.0 mm 0.03 in0.8 mm
03:09 AM 58.6°F14.8°C 56.8°F13.8°C 94% 7.0 mph SW11.3 kmh SW 15.0 mph24.1 kmh 29.74 in1007.1 mb 0.02 in0.5 mm 0.00 in0.0 mm 0.03 in0.8 mm
03:08 AM 58.6°F14.8°C 56.8°F13.8°C 94% 7.0 mph SW11.3 kmh SW 14.0 mph22.5 kmh 29.74 in1007.1 mb 0.02 in0.5 mm 0.00 in0.0 mm 0.03 in0.8 mm
03:07 AM 58.6°F14.8°C 56.8°F13.8°C 94% 7.0 mph SW11.3 kmh SW 14.0 mph22.5 kmh 29.74 in1007.1 mb 0.02 in0.5 mm 0.00 in0.0 mm 0.03 in0.8 mm
03:06 AM 58.6°F14.8°C 56.8°F13.8°C 94% 7.0 mph SW11.3 kmh SW 14.0 mph22.5 kmh 29.74 in1007.1 mb 0.02 in0.5 mm 0.00 in0.0 mm 0.03 in0.8 mm
03:05 AM 58.6°F14.8°C 56.8°F13.8°C 94% 7.0 mph SW11.3 kmh SW 14.0 mph22.5 kmh 29.74 in1007.1 mb 0.02 in0.5 mm 0.00 in0.0 mm 0.03 in0.8 mm
03:04 AM 58.6°F14.8°C 56.8°F13.8°C 94% 7.0 mph SW11.3 kmh SW 14.0 mph22.5 kmh 29.74 in1007.1 mb 0.02 in0.5 mm 0.00 in0.0 mm 0.03 in0.8 mm
03:03 AM 58.6°F14.8°C 56.7°F13.7°C 93% 7.0 mph SW11.3 kmh SW 14.0 mph22.5 kmh 29.74 in1007.1 mb 0.02 in0.5 mm 0.00 in0.0 mm 0.03 in0.8 mm
03:02 AM 58.6°F14.8°C 56.7°F13.7°C 93% 7.0 mph SW11.3 kmh SW 14.0 mph22.5 kmh 29.74 in1007.1 mb 0.02 in0.5 mm 0.00 in0.0 mm 0.03 in0.8 mm
03:01 AM 58.6°F14.8°C 56.7°F13.7°C 93% 7.0 mph SW11.3 kmh SW 14.0 mph22.5 kmh 29.75 in1007.5 mb 0.02 in0.5 mm 0.00 in0.0 mm 0.03 in0.8 mm
03:00 AM 58.6°F14.8°C 56.7°F13.7°C 93% 7.0 mph SW11.3 kmh SW 15.0 mph24.1 kmh 29.75 in1007.5 mb 0.02 in0.5 mm 0.00 in0.0 mm 0.03 in0.8 mm
02:59 AM 58.6°F14.8°C 56.7°F13.7°C 93% 7.0 mph SW11.3 kmh SW 15.0 mph24.1 kmh 29.74 in1007.1 mb 0.02 in0.5 mm 0.00 in0.0 mm 0.03 in0.8 mm
02:58 AM 58.6°F14.8°C 56.7°F13.7°C 93% 7.0 mph SW11.3 kmh SW 15.0 mph24.1 kmh 29.74 in1007.1 mb 0.02 in0.5 mm 0.00 in0.0 mm 0.03 in0.8 mm
02:57 AM 58.6°F14.8°C 56.7°F13.7°C 93% 7.0 mph SW11.3 kmh SW 15.0 mph24.1 kmh 29.74 in1007.1 mb 0.02 in0.5 mm 0.00 in0.0 mm 0.03 in0.8 mm
02:56 AM 58.6°F14.8°C 56.7°F13.7°C 93% 7.0 mph SW11.3 kmh SW 15.0 mph24.1 kmh 29.74 in1007.1 mb 0.02 in0.5 mm 0.00 in0.0 mm 0.03 in0.8 mm
02:55 AM 58.6°F14.8°C 56.7°F13.7°C 93% 7.0 mph SW11.3 kmh SW 16.0 mph25.7 kmh 29.74 in1007.1 mb 0.02 in0.5 mm 0.00 in0.0 mm 0.03 in0.8 mm
02:54 AM 58.6°F14.8°C 56.7°F13.7°C 93% 8.0 mph SW12.9 kmh SW 16.0 mph25.7 kmh 29.74 in1007.1 mb 0.02 in0.5 mm 0.00 in0.0 mm 0.03 in0.8 mm
02:53 AM 58.6°F14.8°C 56.7°F13.7°C 93% 8.0 mph SW12.9 kmh SW 16.0 mph25.7 kmh 29.74 in1007.1 mb 0.02 in0.5 mm 0.00 in0.0 mm 0.03 in0.8 mm
02:52 AM 58.6°F14.8°C 56.7°F13.7°C 93% 8.0 mph SW12.9 kmh SW 16.0 mph25.7 kmh 29.74 in1007.1 mb 0.02 in0.5 mm 0.00 in0.0 mm 0.03 in0.8 mm
02:51 AM 58.6°F14.8°C 56.7°F13.7°C 93% 7.0 mph SW11.3 kmh SW 16.0 mph25.7 kmh 29.74 in1007.1 mb 0.02 in0.5 mm 0.00 in0.0 mm 0.03 in0.8 mm
02:50 AM 58.6°F14.8°C 56.7°F13.7°C 93% 7.0 mph SW11.3 kmh SW 16.0 mph25.7 kmh 29.74 in1007.1 mb 0.02 in0.5 mm 0.00 in0.0 mm 0.03 in0.8 mm
02:49 AM 58.8°F14.9°C 56.8°F13.8°C 93% 7.0 mph SW11.3 kmh SW 16.0 mph25.7 kmh 29.74 in1007.1 mb 0.02 in0.5 mm 0.00 in0.0 mm 0.03 in0.8 mm
02:48 AM 58.6°F14.8°C 56.7°F13.7°C 93% 7.0 mph SW11.3 kmh SW 16.0 mph25.7 kmh 29.74 in1007.1 mb 0.02 in0.5 mm 0.00 in0.0 mm 0.03 in0.8 mm
02:47 AM 58.8°F14.9°C 56.8°F13.8°C 93% 7.0 mph SW11.3 kmh SW 16.0 mph25.7 kmh 29.74 in1007.1 mb 0.02 in0.5 mm 0.00 in0.0 mm 0.03 in0.8 mm
02:46 AM 58.8°F14.9°C 56.8°F13.8°C 93% 7.0 mph SW11.3 kmh SW 16.0 mph25.7 kmh 29.74 in1007.1 mb 0.03 in0.8 mm 0.60 in15.2 mm 0.03 in0.8 mm
02:45 AM 58.8°F14.9°C 56.8°F13.8°C 93% 7.0 mph SW11.3 kmh SW 15.0 mph24.1 kmh 29.74 in1007.1 mb 0.02 in0.5 mm 0.00 in0.0 mm 0.02 in0.5 mm
02:44 AM 58.6°F14.8°C 56.7°F13.7°C 93% 7.0 mph SW11.3 kmh SW 15.0 mph24.1 kmh 29.74 in1007.1 mb 0.02 in0.5 mm 0.00 in0.0 mm 0.02 in0.5 mm
02:43 AM 58.8°F14.9°C 56.8°F13.8°C 93% 7.0 mph SW11.3 kmh SW 16.0 mph25.7 kmh 29.74 in1007.1 mb 0.02 in0.5 mm 0.00 in0.0 mm 0.02 in0.5 mm
02:42 AM 58.8°F14.9°C 56.8°F13.8°C 93% 8.0 mph SW12.9 kmh SW 16.0 mph25.7 kmh 29.74 in1007.1 mb 0.02 in0.5 mm 0.00 in0.0 mm 0.02 in0.5 mm
02:41 AM 58.6°F14.8°C 56.7°F13.7°C 93% 8.0 mph SW12.9 kmh SW 16.0 mph25.7 kmh 29.74 in1007.1 mb 0.02 in0.5 mm 0.00 in0.0 mm 0.02 in0.5 mm
02:40 AM 58.8°F14.9°C 56.8°F13.8°C 93% 8.0 mph SW12.9 kmh SW 16.0 mph25.7 kmh 29.74 in1007.1 mb 0.02 in0.5 mm 0.00 in0.0 mm 0.02 in0.5 mm
02:39 AM 58.8°F14.9°C 56.8°F13.8°C 93% 8.0 mph SW12.9 kmh SW 16.0 mph25.7 kmh 29.74 in1007.1 mb 0.02 in0.5 mm 0.00 in0.0 mm 0.02 in0.5 mm
02:38 AM 58.8°F14.9°C 56.8°F13.8°C 93% 8.0 mph SW12.9 kmh SW 16.0 mph25.7 kmh 29.74 in1007.1 mb 0.02 in0.5 mm 0.00 in0.0 mm 0.02 in0.5 mm
02:37 AM 58.8°F14.9°C 56.8°F13.8°C 93% 7.0 mph SW11.3 kmh SW 16.0 mph25.7 kmh 29.74 in1007.1 mb 0.02 in0.5 mm 0.00 in0.0 mm 0.02 in0.5 mm
02:36 AM 58.8°F14.9°C 56.8°F13.8°C 93% 7.0 mph SW11.3 kmh SW 16.0 mph25.7 kmh 29.74 in1007.1 mb 0.02 in0.5 mm 0.00 in0.0 mm 0.02 in0.5 mm
02:35 AM 58.8°F14.9°C 56.8°F13.8°C 93% 7.0 mph SW11.3 kmh SW 16.0 mph25.7 kmh 29.75 in1007.5 mb 0.02 in0.5 mm 0.00 in0.0 mm 0.02 in0.5 mm
02:34 AM 58.8°F14.9°C 56.8°F13.8°C 93% 7.0 mph SW11.3 kmh SW 16.0 mph25.7 kmh 29.74 in1007.1 mb 0.02 in0.5 mm 0.00 in0.0 mm 0.02 in0.5 mm
02:33 AM 58.8°F14.9°C 56.8°F13.8°C 93% 6.0 mph SW9.7 kmh SW 14.0 mph22.5 kmh 29.74 in1007.1 mb 0.02 in0.5 mm 0.00 in0.0 mm 0.02 in0.5 mm
02:32 AM 58.8°F14.9°C 56.8°F13.8°C 93% 6.0 mph SW9.7 kmh SW 14.0 mph22.5 kmh 29.74 in1007.1 mb 0.02 in0.5 mm 0.00 in0.0 mm 0.02 in0.5 mm
02:31 AM 58.8°F14.9°C 56.8°F13.8°C 93% 6.0 mph SW9.7 kmh SW 14.0 mph22.5 kmh 29.74 in1007.1 mb 0.02 in0.5 mm 0.00 in0.0 mm 0.02 in0.5 mm
02:30 AM 58.8°F14.9°C 56.8°F13.8°C 93% 6.0 mph SW9.7 kmh SW 14.0 mph22.5 kmh 29.74 in1007.1 mb 0.02 in0.5 mm 0.00 in0.0 mm 0.02 in0.5 mm
02:29 AM 58.8°F14.9°C 56.8°F13.8°C 93% 5.0 mph SW8.0 kmh SW 13.0 mph20.9 kmh 29.74 in1007.1 mb 0.02 in0.5 mm 0.00 in0.0 mm 0.02 in0.5 mm
02:28 AM 58.6°F14.8°C 56.7°F13.7°C 93% 5.0 mph SW8.0 kmh SW 11.0 mph17.7 kmh 29.74 in1007.1 mb 0.02 in0.5 mm 0.00 in0.0 mm 0.02 in0.5 mm
02:27 AM 58.6°F14.8°C 56.7°F13.7°C 93% 5.0 mph SW8.0 kmh SW 11.0 mph17.7 kmh 29.74 in1007.1 mb 0.02 in0.5 mm 0.00 in0.0 mm 0.02 in0.5 mm
02:26 AM 58.6°F14.8°C 56.7°F13.7°C 93% 5.0 mph SW8.0 kmh SW 11.0 mph17.7 kmh 29.74 in1007.1 mb 0.02 in0.5 mm 0.00 in0.0 mm 0.02 in0.5 mm
02:25 AM 58.6°F14.8°C 56.7°F13.7°C 93% 6.0 mph SW9.7 kmh SW 10.0 mph16.1 kmh 29.74 in1007.1 mb 0.02 in0.5 mm 0.00 in0.0 mm 0.02 in0.5 mm
02:24 AM 58.6°F14.8°C 56.7°F13.7°C 93% 6.0 mph SW9.7 kmh SW 14.0 mph22.5 kmh 29.74 in1007.1 mb 0.02 in0.5 mm 0.00 in0.0 mm 0.02 in0.5 mm
02:23 AM 58.6°F14.8°C 56.3°F13.5°C 92% 6.0 mph SW9.7 kmh SW 14.0 mph22.5 kmh 29.74 in1007.1 mb 0.02 in0.5 mm 0.00 in0.0 mm 0.02 in0.5 mm
02:22 AM 58.6°F14.8°C 56.3°F13.5°C 92% 6.0 mph SW9.7 kmh SW 14.0 mph22.5 kmh 29.74 in1007.1 mb 0.02 in0.5 mm 0.00 in0.0 mm 0.02 in0.5 mm
02:21 AM 58.6°F14.8°C 56.3°F13.5°C 92% 7.0 mph SW11.3 kmh SW 14.0 mph22.5 kmh 29.74 in1007.1 mb 0.02 in0.5 mm 0.00 in0.0 mm 0.02 in0.5 mm
02:20 AM 58.6°F14.8°C 56.3°F13.5°C 92% 7.0 mph SW11.3 kmh SW 15.0 mph24.1 kmh 29.74 in1007.1 mb 0.02 in0.5 mm 0.00 in0.0 mm 0.02 in0.5 mm
02:19 AM 58.6°F14.8°C 56.3°F13.5°C 92% 6.0 mph SW9.7 kmh SW 15.0 mph24.1 kmh 29.75 in1007.5 mb 0.02 in0.5 mm 0.00 in0.0 mm 0.02 in0.5 mm
02:18 AM 58.6°F14.8°C 56.3°F13.5°C 92% 7.0 mph SW11.3 kmh SW 15.0 mph24.1 kmh 29.75 in1007.5 mb 0.02 in0.5 mm 0.00 in0.0 mm 0.02 in0.5 mm
02:17 AM 58.6°F14.8°C 56.3°F13.5°C 92% 7.0 mph SW11.3 kmh SW 15.0 mph24.1 kmh 29.75 in1007.5 mb 0.02 in0.5 mm 0.00 in0.0 mm 0.02 in0.5 mm
02:16 AM 58.6°F14.8°C 56.3°F13.5°C 92% 7.0 mph SW11.3 kmh SW 15.0 mph24.1 kmh 29.75 in1007.5 mb 0.02 in0.5 mm 0.00 in0.0 mm 0.02 in0.5 mm
02:15 AM 58.6°F14.8°C 56.3°F13.5°C 92% 7.0 mph SW11.3 kmh SW 15.0 mph24.1 kmh 29.74 in1007.1 mb 0.02 in0.5 mm 0.00 in0.0 mm 0.02 in0.5 mm
02:14 AM 58.6°F14.8°C 56.3°F13.5°C 92% 7.0 mph SW11.3 kmh SW 16.0 mph25.7 kmh 29.75 in1007.5 mb 0.02 in0.5 mm 0.00 in0.0 mm 0.02 in0.5 mm
02:13 AM 58.6°F14.8°C 56.3°F13.5°C 92% 7.0 mph SW11.3 kmh SW 16.0 mph25.7 kmh 29.75 in1007.5 mb 0.02 in0.5 mm 0.00 in0.0 mm 0.02 in0.5 mm
02:12 AM 58.6°F14.8°C 56.3°F13.5°C 92% 7.0 mph SW11.3 kmh SW 16.0 mph25.7 kmh 29.75 in1007.5 mb 0.02 in0.5 mm 0.00 in0.0 mm 0.02 in0.5 mm
02:11 AM 58.6°F14.8°C 56.3°F13.5°C 92% 7.0 mph SW11.3 kmh SW 16.0 mph25.7 kmh 29.75 in1007.5 mb 0.02 in0.5 mm 0.00 in0.0 mm 0.02 in0.5 mm
02:10 AM 58.8°F14.9°C 56.5°F13.6°C 92% 6.0 mph SW9.7 kmh SW 16.0 mph25.7 kmh 29.75 in1007.5 mb 0.02 in0.5 mm 0.00 in0.0 mm 0.02 in0.5 mm
02:09 AM 58.8°F14.9°C 56.5°F13.6°C 92% 6.0 mph SW9.7 kmh SW 16.0 mph25.7 kmh 29.75 in1007.5 mb 0.02 in0.5 mm 0.00 in0.0 mm 0.02 in0.5 mm
02:08 AM 58.8°F14.9°C 56.5°F13.6°C 92% 6.0 mph SW9.7 kmh SW 16.0 mph25.7 kmh 29.75 in1007.5 mb 0.02 in0.5 mm 0.00 in0.0 mm 0.02 in0.5 mm
02:07 AM 58.8°F14.9°C 56.5°F13.6°C 92% 7.0 mph SW11.3 kmh SW 16.0 mph25.7 kmh 29.75 in1007.5 mb 0.02 in0.5 mm 0.00 in0.0 mm 0.02 in0.5 mm
02:06 AM 58.8°F14.9°C 56.5°F13.6°C 92% 6.0 mph SW9.7 kmh SW 16.0 mph25.7 kmh 29.74 in1007.1 mb 0.02 in0.5 mm 0.00 in0.0 mm 0.02 in0.5 mm
02:05 AM 58.8°F14.9°C 56.5°F13.6°C 92% 6.0 mph SW9.7 kmh SW 16.0 mph25.7 kmh 29.75 in1007.5 mb 0.02 in0.5 mm 0.00 in0.0 mm 0.02 in0.5 mm
02:04 AM 58.8°F14.9°C 56.5°F13.6°C 92% 6.0 mph SW9.7 kmh SW 13.0 mph20.9 kmh 29.75 in1007.5 mb 0.02 in0.5 mm 0.00 in0.0 mm 0.02 in0.5 mm
02:03 AM 58.8°F14.9°C 56.5°F13.6°C 92% 6.0 mph SW9.7 kmh SW 13.0 mph20.9 kmh 29.75 in1007.5 mb 0.02 in0.5 mm 0.00 in0.0 mm 0.02 in0.5 mm
02:02 AM 58.8°F14.9°C 56.3°F13.5°C 91% 6.0 mph SW9.7 kmh SW 14.0 mph22.5 kmh 29.75 in1007.5 mb 0.02 in0.5 mm 0.00 in0.0 mm 0.02 in0.5 mm
02:01 AM 58.8°F14.9°C 56.3°F13.5°C 91% 7.0 mph SW11.3 kmh SW 14.0 mph22.5 kmh 29.75 in1007.5 mb 0.02 in0.5 mm 0.00 in0.0 mm 0.02 in0.5 mm
02:00 AM 58.8°F14.9°C 56.3°F13.5°C 91% 7.0 mph SW11.3 kmh SW 14.0 mph22.5 kmh 29.75 in1007.5 mb 0.02 in0.5 mm 0.00 in0.0 mm 0.02 in0.5 mm
01:59 AM 58.8°F14.9°C 56.3°F13.5°C 91% 7.0 mph SW11.3 kmh SW 14.0 mph22.5 kmh 29.75 in1007.5 mb 0.02 in0.5 mm 0.00 in0.0 mm 0.02 in0.5 mm
01:58 AM 58.8°F14.9°C 56.3°F13.5°C 91% 7.0 mph SW11.3 kmh SW 14.0 mph22.5 kmh 29.75 in1007.5 mb 0.02 in0.5 mm 0.60 in15.2 mm 0.02 in0.5 mm
01:57 AM 58.8°F14.9°C 56.3°F13.5°C 91% 7.0 mph SW11.3 kmh SW 14.0 mph22.5 kmh 29.75 in1007.5 mb 0.01 in0.3 mm 0.00 in0.0 mm 0.01 in0.3 mm
01:56 AM 59.0°F15.0°C 56.3°F13.5°C 91% 7.0 mph SW11.3 kmh SW 14.0 mph22.5 kmh 29.75 in1007.5 mb 0.01 in0.3 mm 0.00 in0.0 mm 0.01 in0.3 mm
01:55 AM 59.0°F15.0°C 56.3°F13.5°C 91% 7.0 mph SW11.3 kmh SW 14.0 mph22.5 kmh 29.75 in1007.5 mb 0.01 in0.3 mm 0.00 in0.0 mm 0.01 in0.3 mm
01:54 AM 59.0°F15.0°C 56.3°F13.5°C 91% 7.0 mph SW11.3 kmh SW 14.0 mph22.5 kmh 29.75 in1007.5 mb 0.01 in0.3 mm 0.00 in0.0 mm 0.01 in0.3 mm
01:53 AM 59.2°F15.1°C 56.5°F13.6°C 91% 6.0 mph SW9.7 kmh SW 14.0 mph22.5 kmh 29.75 in1007.5 mb 0.01 in0.3 mm 0.00 in0.0 mm 0.01 in0.3 mm
01:52 AM 59.2°F15.1°C 56.5°F13.6°C 91% 6.0 mph SW9.7 kmh SW 14.0 mph22.5 kmh 29.75 in1007.5 mb 0.01 in0.3 mm 0.00 in0.0 mm 0.01 in0.3 mm
01:51 AM 59.2°F15.1°C 56.5°F13.6°C 91% 6.0 mph SW9.7 kmh SW 14.0 mph22.5 kmh 29.75 in1007.5 mb 0.01 in0.3 mm 0.00 in0.0 mm 0.01 in0.3 mm
01:50 AM 59.2°F15.1°C 56.7°F13.7°C 91% 6.0 mph SW9.7 kmh SW 13.0 mph20.9 kmh 29.75 in1007.5 mb 0.01 in0.3 mm 0.00 in0.0 mm 0.01 in0.3 mm
01:49 AM 59.2°F15.1°C 56.7°F13.7°C 91% 6.0 mph SW9.7 kmh SW 13.0 mph20.9 kmh 29.75 in1007.5 mb 0.01 in0.3 mm 0.00 in0.0 mm 0.01 in0.3 mm
01:48 AM 59.4°F15.2°C 56.7°F13.7°C 91% 6.0 mph SW9.7 kmh SW 13.0 mph20.9 kmh 29.75 in1007.5 mb 0.01 in0.3 mm 0.00 in0.0 mm 0.01 in0.3 mm
01:47 AM 59.4°F15.2°C 56.3°F13.5°C 90% 6.0 mph SW9.7 kmh SW 13.0 mph20.9 kmh 29.75 in1007.5 mb 0.01 in0.3 mm 0.60 in15.2 mm 0.01 in0.3 mm
01:46 AM 59.4°F15.2°C 56.3°F13.5°C 90% 6.0 mph SW9.7 kmh SW 13.0 mph20.9 kmh 29.75 in1007.5 mb 0.00 in0.0 mm 0.00 in0.0 mm 0.00 in0.0 mm
01:45 AM 59.4°F15.2°C 56.5°F13.6°C 90% 5.0 mph SW8.0 kmh SW 13.0 mph20.9 kmh 29.75 in1007.5 mb 0.00 in0.0 mm 0.00 in0.0 mm 0.00 in0.0 mm
01:44 AM 59.4°F15.2°C 56.5°F13.6°C 90% 6.0 mph SW9.7 kmh SW 13.0 mph20.9 kmh 29.75 in1007.5 mb 0.00 in0.0 mm 0.00 in0.0 mm 0.00 in0.0 mm
01:43 AM 59.5°F15.3°C 56.5°F13.6°C 90% 6.0 mph SW9.7 kmh SW 13.0 mph20.9 kmh 29.75 in1007.5 mb 0.00 in0.0 mm 0.00 in0.0 mm 0.00 in0.0 mm
01:42 AM 59.5°F15.3°C 56.5°F13.6°C 90% 5.0 mph SW8.0 kmh SW 13.0 mph20.9 kmh 29.75 in1007.5 mb 0.00 in0.0 mm 0.00 in0.0 mm 0.00 in0.0 mm
01:41 AM 59.5°F15.3°C 56.7°F13.7°C 90% 5.0 mph SW8.0 kmh SW 13.0 mph20.9 kmh 29.75 in1007.5 mb 0.00 in0.0 mm 0.00 in0.0 mm 0.00 in0.0 mm
01:40 AM 59.5°F15.3°C 56.7°F13.7°C 90% 6.0 mph SW9.7 kmh SW 11.0 mph17.7 kmh 29.75 in1007.5 mb 0.00 in0.0 mm 0.00 in0.0 mm 0.00 in0.0 mm
01:39 AM 59.5°F15.3°C 56.7°F13.7°C 90% 6.0 mph SW9.7 kmh SW 14.0 mph22.5 kmh 29.75 in1007.5 mb 0.00 in0.0 mm 0.00 in0.0 mm 0.00 in0.0 mm
01:38 AM 59.5°F15.3°C 56.7°F13.7°C 90% 6.0 mph SW9.7 kmh SW 14.0 mph22.5 kmh 29.75 in1007.5 mb 0.00 in0.0 mm 0.00 in0.0 mm 0.00 in0.0 mm
01:37 AM 59.7°F15.4°C 56.8°F13.8°C 90% 7.0 mph SW11.3 kmh SW 14.0 mph22.5 kmh 29.75 in1007.5 mb 0.00 in0.0 mm 0.00 in0.0 mm 0.00 in0.0 mm
01:36 AM 59.7°F15.4°C 56.5°F13.6°C 89% 7.0 mph SW11.3 kmh SW 14.0 mph22.5 kmh 29.75 in1007.5 mb 0.00 in0.0 mm 0.00 in0.0 mm 0.00 in0.0 mm
01:35 AM 59.7°F15.4°C 56.5°F13.6°C 89% 7.0 mph SW11.3 kmh SW 14.0 mph22.5 kmh 29.75 in1007.5 mb 0.00 in0.0 mm 0.00 in0.0 mm 0.00 in0.0 mm
01:34 AM 59.7°F15.4°C 56.5°F13.6°C 89% 7.0 mph SW11.3 kmh SW 14.0 mph22.5 kmh 29.75 in1007.5 mb 0.00 in0.0 mm 0.00 in0.0 mm 0.00 in0.0 mm
01:33 AM 59.7°F15.4°C 56.5°F13.6°C 89% 7.0 mph SW11.3 kmh SW 14.0 mph22.5 kmh 29.75 in1007.5 mb 0.00 in0.0 mm 0.00 in0.0 mm 0.00 in0.0 mm
01:32 AM 59.7°F15.4°C 56.5°F13.6°C 89% 7.0 mph SW11.3 kmh SW 14.0 mph22.5 kmh 29.75 in1007.5 mb 0.00 in0.0 mm 0.00 in0.0 mm 0.00 in0.0 mm
01:31 AM 59.7°F15.4°C 56.5°F13.6°C 89% 7.0 mph SW11.3 kmh SW 14.0 mph22.5 kmh 29.75 in1007.5 mb 0.00 in0.0 mm 0.00 in0.0 mm 0.00 in0.0 mm
01:30 AM 59.7°F15.4°C 56.5°F13.6°C 89% 6.0 mph SW9.7 kmh SW 14.0 mph22.5 kmh 29.75 in1007.5 mb 0.00 in0.0 mm 0.00 in0.0 mm 0.00 in0.0 mm
01:29 AM 59.7°F15.4°C 56.5°F13.6°C 89% 6.0 mph SW9.7 kmh SW 14.0 mph22.5 kmh 29.75 in1007.5 mb 0.00 in0.0 mm 0.00 in0.0 mm 0.00 in0.0 mm
01:28 AM 59.7°F15.4°C 56.5°F13.6°C 89% 6.0 mph SW9.7 kmh SW 14.0 mph22.5 kmh 29.75 in1007.5 mb 0.00 in0.0 mm 0.00 in0.0 mm 0.00 in0.0 mm
01:27 AM 59.7°F15.4°C 56.5°F13.6°C 89% 6.0 mph SW9.7 kmh SW 14.0 mph22.5 kmh 29.75 in1007.5 mb 0.00 in0.0 mm 0.00 in0.0 mm 0.00 in0.0 mm
01:26 AM 59.5°F15.3°C 56.3°F13.5°C 89% 6.0 mph SW9.7 kmh SW 14.0 mph22.5 kmh 29.75 in1007.5 mb 0.00 in0.0 mm 0.00 in0.0 mm 0.00 in0.0 mm
01:25 AM 59.5°F15.3°C 56.3°F13.5°C 89% 6.0 mph SW9.7 kmh SW 14.0 mph22.5 kmh 29.75 in1007.5 mb 0.00 in0.0 mm 0.00 in0.0 mm 0.00 in0.0 mm
01:24 AM 59.5°F15.3°C 56.3°F13.5°C 89% 7.0 mph SW11.3 kmh SW 14.0 mph22.5 kmh 29.75 in1007.5 mb 0.00 in0.0 mm 0.00 in0.0 mm 0.00 in0.0 mm
01:23 AM 59.5°F15.3°C 56.3°F13.5°C 89% 7.0 mph SW11.3 kmh SW 14.0 mph22.5 kmh 29.75 in1007.5 mb 0.00 in0.0 mm 0.00 in0.0 mm 0.00 in0.0 mm
01:22 AM 59.5°F15.3°C 56.3°F13.5°C 89% 7.0 mph SW11.3 kmh SW 14.0 mph22.5 kmh 29.75 in1007.5 mb 0.00 in0.0 mm 0.00 in0.0 mm 0.00 in0.0 mm
01:21 AM 59.5°F15.3°C 56.3°F13.5°C 89% 7.0 mph SW11.3 kmh SW 14.0 mph22.5 kmh 29.75 in1007.5 mb 0.00 in0.0 mm 0.00 in0.0 mm 0.00 in0.0 mm
01:20 AM 59.5°F15.3°C 56.3°F13.5°C 89% 7.0 mph SW11.3 kmh SW 14.0 mph22.5 kmh 29.75 in1007.5 mb 0.00 in0.0 mm 0.00 in0.0 mm 0.00 in0.0 mm
01:19 AM 59.5°F15.3°C 56.3°F13.5°C 89% 7.0 mph SW11.3 kmh SW 14.0 mph22.5 kmh 29.75 in1007.5 mb 0.00 in0.0 mm 0.00 in0.0 mm 0.00 in0.0 mm
01:18 AM 59.5°F15.3°C 56.3°F13.5°C 89% 7.0 mph SW11.3 kmh SW 14.0 mph22.5 kmh 29.75 in1007.5 mb 0.00 in0.0 mm 0.00 in0.0 mm 0.00 in0.0 mm
01:17 AM 59.5°F15.3°C 56.3°F13.5°C 89% 7.0 mph SW11.3 kmh SW 13.0 mph20.9 kmh 29.75 in1007.5 mb 0.00 in0.0 mm 0.00 in0.0 mm 0.00 in0.0 mm
01:16 AM 59.5°F15.3°C 56.3°F13.5°C 89% 8.0 mph SW12.9 kmh SW 16.0 mph25.7 kmh 29.75 in1007.5 mb 0.00 in0.0 mm 0.00 in0.0 mm 0.00 in0.0 mm
01:15 AM 59.5°F15.3°C 56.3°F13.5°C 89% 8.0 mph SW12.9 kmh SW 16.0 mph25.7 kmh 29.75 in1007.5 mb 0.00 in0.0 mm 0.00 in0.0 mm 0.00 in0.0 mm
01:14 AM 59.5°F15.3°C 56.3°F13.5°C 89% 8.0 mph SW12.9 kmh SW 16.0 mph25.7 kmh 29.75 in1007.5 mb 0.00 in0.0 mm 0.00 in0.0 mm 0.00 in0.0 mm
01:13 AM 59.5°F15.3°C 56.3°F13.5°C 89% 8.0 mph SW12.9 kmh SW 16.0 mph25.7 kmh 29.75 in1007.5 mb 0.00 in0.0 mm 0.00 in0.0 mm 0.00 in0.0 mm
01:12 AM 59.5°F15.3°C 56.3°F13.5°C 89% 8.0 mph SW12.9 kmh SW 16.0 mph25.7 kmh 29.75 in1007.5 mb 0.00 in0.0 mm 0.00 in0.0 mm 0.00 in0.0 mm
01:11 AM 59.5°F15.3°C 56.3°F13.5°C 89% 8.0 mph SW12.9 kmh SW 16.0 mph25.7 kmh 29.75 in1007.5 mb 0.00 in0.0 mm 0.00 in0.0 mm 0.00 in0.0 mm
01:10 AM 59.5°F15.3°C 56.3°F13.5°C 89% 8.0 mph SW12.9 kmh SW 16.0 mph25.7 kmh 29.76 in1007.8 mb 0.00 in0.0 mm 0.00 in0.0 mm 0.00 in0.0 mm
01:09 AM 59.4°F15.2°C 56.1°F13.4°C 89% 8.0 mph SW12.9 kmh SW 16.0 mph25.7 kmh 29.76 in1007.8 mb 0.00 in0.0 mm 0.00 in0.0 mm 0.00 in0.0 mm
01:08 AM 59.4°F15.2°C 56.1°F13.4°C 89% 9.0 mph SW14.5 kmh SW 16.0 mph25.7 kmh 29.75 in1007.5 mb 0.00 in0.0 mm 0.00 in0.0 mm 0.00 in0.0 mm
01:07 AM 59.4°F15.2°C 56.1°F13.4°C 89% 9.0 mph SW14.5 kmh SW 16.0 mph25.7 kmh 29.75 in1007.5 mb 0.00 in0.0 mm 0.00 in0.0 mm 0.00 in0.0 mm
01:06 AM 59.4°F15.2°C 56.1°F13.4°C 89% 8.0 mph SW12.9 kmh SW 16.0 mph25.7 kmh 29.75 in1007.5 mb 0.00 in0.0 mm 0.00 in0.0 mm 0.00 in0.0 mm
01:05 AM 59.4°F15.2°C 56.1°F13.4°C 89% 9.0 mph SW14.5 kmh SW 15.0 mph24.1 kmh 29.76 in1007.8 mb 0.00 in0.0 mm 0.00 in0.0 mm 0.00 in0.0 mm
01:04 AM 59.4°F15.2°C 56.1°F13.4°C 89% 9.0 mph SW14.5 kmh SW 18.0 mph29.0 kmh 29.75 in1007.5 mb 0.00 in0.0 mm 0.00 in0.0 mm 0.00 in0.0 mm
01:03 AM 59.4°F15.2°C 56.1°F13.4°C 89% 8.0 mph SW12.9 kmh SW 18.0 mph29.0 kmh 29.75 in1007.5 mb 0.00 in0.0 mm 0.00 in0.0 mm 0.00 in0.0 mm
01:02 AM 59.4°F15.2°C 55.8°F13.2°C 88% 8.0 mph SW12.9 kmh SW 18.0 mph29.0 kmh 29.76 in1007.8 mb 0.00 in0.0 mm 0.00 in0.0 mm 0.00 in0.0 mm
01:01 AM 59.4°F15.2°C 55.8°F13.2°C 88% 8.0 mph SW12.9 kmh SW 18.0 mph29.0 kmh 29.76 in1007.8 mb 0.00 in0.0 mm 0.00 in0.0 mm 0.00 in0.0 mm
01:00 AM 59.4°F15.2°C 55.8°F13.2°C 88% 8.0 mph SW12.9 kmh SW 18.0 mph29.0 kmh 29.76 in1007.8 mb 0.00 in0.0 mm 0.00 in0.0 mm 0.00 in0.0 mm
12:59 AM 59.4°F15.2°C 55.8°F13.2°C 88% 8.0 mph SW12.9 kmh SW 18.0 mph29.0 kmh 29.76 in1007.8 mb 0.00 in0.0 mm 0.00 in0.0 mm 0.00 in0.0 mm
12:58 AM 59.4°F15.2°C 55.8°F13.2°C 88% 8.0 mph SW12.9 kmh SW 18.0 mph29.0 kmh 29.76 in1007.8 mb 0.00 in0.0 mm 0.00 in0.0 mm 0.00 in0.0 mm
12:57 AM 59.4°F15.2°C 55.8°F13.2°C 88% 8.0 mph SW12.9 kmh SW 18.0 mph29.0 kmh 29.75 in1007.5 mb 0.00 in0.0 mm 0.00 in0.0 mm 0.00 in0.0 mm
12:56 AM 59.4°F15.2°C 55.8°F13.2°C 88% 8.0 mph SW12.9 kmh SW 18.0 mph29.0 kmh 29.75 in1007.5 mb 0.00 in0.0 mm 0.00 in0.0 mm 0.00 in0.0 mm
12:55 AM 59.4°F15.2°C 55.8°F13.2°C 88% 7.0 mph SW11.3 kmh SW 18.0 mph29.0 kmh 29.76 in1007.8 mb 0.00 in0.0 mm 0.00 in0.0 mm 0.00 in0.0 mm
12:54 AM 59.4°F15.2°C 55.8°F13.2°C 88% 7.0 mph SW11.3 kmh SW 13.0 mph20.9 kmh 29.76 in1007.8 mb 0.00 in0.0 mm 0.00 in0.0 mm 0.00 in0.0 mm
12:53 AM 59.4°F15.2°C 55.8°F13.2°C 88% 7.0 mph SW11.3 kmh SW 13.0 mph20.9 kmh 29.76 in1007.8 mb 0.00 in0.0 mm 0.00 in0.0 mm 0.00 in0.0 mm
12:52 AM 59.4°F15.2°C 55.8°F13.2°C 88% 7.0 mph SW11.3 kmh SW 13.0 mph20.9 kmh 29.76 in1007.8 mb 0.00 in0.0 mm 0.00 in0.0 mm 0.00 in0.0 mm
12:51 AM 59.4°F15.2°C 55.8°F13.2°C 88% 8.0 mph SW12.9 kmh SW 13.0 mph20.9 kmh 29.76 in1007.8 mb 0.00 in0.0 mm 0.00 in0.0 mm 0.00 in0.0 mm
12:50 AM 59.4°F15.2°C 55.8°F13.2°C 88% 8.0 mph SW12.9 kmh SW 14.0 mph22.5 kmh 29.76 in1007.8 mb 0.00 in0.0 mm 0.00 in0.0 mm 0.00 in0.0 mm
12:49 AM 59.4°F15.2°C 55.8°F13.2°C 88% 8.0 mph SW12.9 kmh SW 14.0 mph22.5 kmh 29.76 in1007.8 mb 0.00 in0.0 mm 0.00 in0.0 mm 0.00 in0.0 mm
12:48 AM 59.4°F15.2°C 55.8°F13.2°C 88% 8.0 mph SW12.9 kmh SW 15.0 mph24.1 kmh 29.76 in1007.8 mb 0.00 in0.0 mm 0.00 in0.0 mm 0.00 in0.0 mm
12:47 AM 59.4°F15.2°C 55.8°F13.2°C 88% 7.0 mph SW11.3 kmh SW 15.0 mph24.1 kmh 29.76 in1007.8 mb 0.00 in0.0 mm 0.00 in0.0 mm 0.00 in0.0 mm
12:46 AM 59.4°F15.2°C 55.8°F13.2°C 88% 8.0 mph SW12.9 kmh SW 15.0 mph24.1 kmh 29.76 in1007.8 mb 0.00 in0.0 mm 0.00 in0.0 mm 0.00 in0.0 mm
12:45 AM 59.4°F15.2°C 55.8°F13.2°C 88% 7.0 mph SW11.3 kmh SW 15.0 mph24.1 kmh 29.76 in1007.8 mb 0.00 in0.0 mm 0.00 in0.0 mm 0.00 in0.0 mm
12:44 AM 59.4°F15.2°C 55.8°F13.2°C 88% 8.0 mph SW12.9 kmh SW 15.0 mph24.1 kmh 29.76 in1007.8 mb 0.00 in0.0 mm 0.00 in0.0 mm 0.00 in0.0 mm
12:43 AM 59.4°F15.2°C 55.8°F13.2°C 88% 7.0 mph SW11.3 kmh SW 15.0 mph24.1 kmh 29.76 in1007.8 mb 0.00 in0.0 mm 0.00 in0.0 mm 0.00 in0.0 mm
12:42 AM 59.4°F15.2°C 55.8°F13.2°C 88% 8.0 mph SW12.9 kmh SW 15.0 mph24.1 kmh 29.76 in1007.8 mb 0.00 in0.0 mm 0.00 in0.0 mm 0.00 in0.0 mm
12:41 AM 59.4°F15.2°C 55.8°F13.2°C 88% 8.0 mph SW12.9 kmh SW 15.0 mph24.1 kmh 29.76 in1007.8 mb 0.00 in0.0 mm 0.00 in0.0 mm 0.00 in0.0 mm
12:40 AM 59.2°F15.1°C 55.6°F13.1°C 88% 7.0 mph SW11.3 kmh SW 15.0 mph24.1 kmh 29.76 in1007.8 mb 0.00 in0.0 mm 0.00 in0.0 mm 0.00 in0.0 mm
12:39 AM 59.2°F15.1°C 55.6°F13.1°C 88% 7.0 mph SW11.3 kmh SW 15.0 mph24.1 kmh 29.76 in1007.8 mb 0.00 in0.0 mm 0.00 in0.0 mm 0.00 in0.0 mm
12:38 AM 59.2°F15.1°C 55.6°F13.1°C 88% 8.0 mph SW12.9 kmh SW 14.0 mph22.5 kmh 29.76 in1007.8 mb 0.00 in0.0 mm 0.00 in0.0 mm 0.00 in0.0 mm
12:37 AM 59.2°F15.1°C 55.6°F13.1°C 88% 8.0 mph SW12.9 kmh SW 17.0 mph27.4 kmh 29.76 in1007.8 mb 0.00 in0.0 mm 0.00 in0.0 mm 0.00 in0.0 mm
12:36 AM 59.2°F15.1°C 55.9°F13.3°C 89% 8.0 mph SW12.9 kmh SW 17.0 mph27.4 kmh 29.76 in1007.8 mb 0.00 in0.0 mm 0.00 in0.0 mm 0.00 in0.0 mm
12:35 AM 59.2°F15.1°C 55.9°F13.3°C 89% 8.0 mph SW12.9 kmh SW 17.0 mph27.4 kmh 29.76 in1007.8 mb 0.00 in0.0 mm 0.00 in0.0 mm 0.00 in0.0 mm
12:34 AM 59.2°F15.1°C 55.9°F13.3°C 89% 8.0 mph SW12.9 kmh SW 17.0 mph27.4 kmh 29.76 in1007.8 mb 0.00 in0.0 mm 0.00 in0.0 mm 0.00 in0.0 mm
12:33 AM 59.2°F15.1°C 55.9°F13.3°C 89% 8.0 mph SW12.9 kmh SW 17.0 mph27.4 kmh 29.76 in1007.8 mb 0.00 in0.0 mm 0.00 in0.0 mm 0.00 in0.0 mm
12:32 AM 59.2°F15.1°C 55.9°F13.3°C 89% 8.0 mph SW12.9 kmh SW 18.0 mph29.0 kmh 29.76 in1007.8 mb 0.00 in0.0 mm 0.00 in0.0 mm 0.00 in0.0 mm
12:31 AM 59.2°F15.1°C 55.9°F13.3°C 89% 8.0 mph SW12.9 kmh SW 18.0 mph29.0 kmh 29.76 in1007.8 mb 0.00 in0.0 mm 0.00 in0.0 mm 0.00 in0.0 mm
12:30 AM 59.0°F15.0°C 55.8°F13.2°C 89% 8.0 mph SW12.9 kmh SW 18.0 mph29.0 kmh 29.76 in1007.8 mb 0.00 in0.0 mm 0.00 in0.0 mm 0.00 in0.0 mm
12:29 AM 59.0°F15.0°C 55.8°F13.2°C 89% 8.0 mph SW12.9 kmh SW 18.0 mph29.0 kmh 29.76 in1007.8 mb 0.00 in0.0 mm 0.00 in0.0 mm 0.00 in0.0 mm
12:28 AM 59.0°F15.0°C 55.8°F13.2°C 89% 8.0 mph SW12.9 kmh SW 18.0 mph29.0 kmh 29.76 in1007.8 mb 0.00 in0.0 mm 0.00 in0.0 mm 0.00 in0.0 mm
12:27 AM 59.0°F15.0°C 55.8°F13.2°C 89% 8.0 mph SW12.9 kmh SW 18.0 mph29.0 kmh 29.76 in1007.8 mb 0.00 in0.0 mm 0.00 in0.0 mm 0.00 in0.0 mm
12:26 AM 58.8°F14.9°C 55.6°F13.1°C 89% 8.0 mph SW12.9 kmh SW 18.0 mph29.0 kmh 29.76 in1007.8 mb 0.00 in0.0 mm 0.00 in0.0 mm 0.00 in0.0 mm
12:25 AM 58.8°F14.9°C 55.6°F13.1°C 89% 8.0 mph SW12.9 kmh SW 18.0 mph29.0 kmh 29.76 in1007.8 mb 0.00 in0.0 mm 0.00 in0.0 mm 0.00 in0.0 mm
12:24 AM 58.8°F14.9°C 55.6°F13.1°C 89% 8.0 mph SW12.9 kmh SW 18.0 mph29.0 kmh 29.76 in1007.8 mb 0.00 in0.0 mm 0.00 in0.0 mm 0.00 in0.0 mm
12:23 AM 58.8°F14.9°C 55.6°F13.1°C 89% 8.0 mph SW12.9 kmh SW 18.0 mph29.0 kmh 29.76 in1007.8 mb 0.00 in0.0 mm 0.00 in0.0 mm 0.00 in0.0 mm
12:22 AM 58.8°F14.9°C 55.6°F13.1°C 89% 8.0 mph SW12.9 kmh SW 15.0 mph24.1 kmh 29.76 in1007.8 mb 0.00 in0.0 mm 0.00 in0.0 mm 0.00 in0.0 mm
12:21 AM 58.8°F14.9°C 55.6°F13.1°C 89% 7.0 mph SW11.3 kmh SW 15.0 mph24.1 kmh 29.76 in1007.8 mb 0.00 in0.0 mm 0.00 in0.0 mm 0.00 in0.0 mm
12:20 AM 58.8°F14.9°C 55.6°F13.1°C 89% 7.0 mph SW11.3 kmh SW 15.0 mph24.1 kmh 29.76 in1007.8 mb 0.00 in0.0 mm 0.00 in0.0 mm 0.00 in0.0 mm
12:19 AM 58.8°F14.9°C 55.6°F13.1°C 89% 7.0 mph SW11.3 kmh SW 14.0 mph22.5 kmh 29.76 in1007.8 mb 0.00 in0.0 mm 0.00 in0.0 mm 0.00 in0.0 mm
12:18 AM 58.8°F14.9°C 55.6°F13.1°C 89% 7.0 mph SW11.3 kmh SW 15.0 mph24.1 kmh 29.76 in1007.8 mb 0.00 in0.0 mm 0.00 in0.0 mm 0.00 in0.0 mm
12:17 AM 58.8°F14.9°C 55.6°F13.1°C 89% 7.0 mph SW11.3 kmh SW 15.0 mph24.1 kmh 29.77 in1008.1 mb 0.00 in0.0 mm 0.00 in0.0 mm 0.00 in0.0 mm
12:16 AM 58.8°F14.9°C 55.6°F13.1°C 89% 7.0 mph SW11.3 kmh SW 15.0 mph24.1 kmh 29.76 in1007.8 mb 0.00 in0.0 mm 0.00 in0.0 mm 0.00 in0.0 mm
12:15 AM 58.8°F14.9°C 55.6°F13.1°C 89% 7.0 mph SW11.3 kmh SW 15.0 mph24.1 kmh 29.76 in1007.8 mb 0.00 in0.0 mm 0.00 in0.0 mm 0.00 in0.0 mm
12:14 AM 58.8°F14.9°C 55.6°F13.1°C 89% 7.0 mph SW11.3 kmh SW 15.0 mph24.1 kmh 29.76 in1007.8 mb 0.00 in0.0 mm 0.00 in0.0 mm 0.00 in0.0 mm
12:13 AM 58.8°F14.9°C 55.6°F13.1°C 89% 7.0 mph SW11.3 kmh SW 15.0 mph24.1 kmh 29.76 in1007.8 mb 0.00 in0.0 mm 0.00 in0.0 mm 0.00 in0.0 mm
12:12 AM 58.6°F14.8°C 55.4°F13.0°C 89% 7.0 mph SW11.3 kmh SW 15.0 mph24.1 kmh 29.76 in1007.8 mb 0.00 in0.0 mm 0.00 in0.0 mm 0.00 in0.0 mm
12:11 AM 58.6°F14.8°C 55.4°F13.0°C 89% 7.0 mph SW11.3 kmh SW 15.0 mph24.1 kmh 29.76 in1007.8 mb 0.00 in0.0 mm 0.00 in0.0 mm 0.00 in0.0 mm
12:10 AM 58.6°F14.8°C 55.4°F13.0°C 89% 7.0 mph SW11.3 kmh SW 15.0 mph24.1 kmh 29.77 in1008.1 mb 0.00 in0.0 mm 0.00 in0.0 mm 0.00 in0.0 mm
12:09 AM 58.6°F14.8°C 55.4°F13.0°C 89% 7.0 mph SW11.3 kmh SW 15.0 mph24.1 kmh 29.76 in1007.8 mb 0.00 in0.0 mm 0.00 in0.0 mm 0.00 in0.0 mm
12:08 AM 58.6°F14.8°C 55.4°F13.0°C 89% 7.0 mph SW11.3 kmh SW 18.0 mph29.0 kmh 29.77 in1008.1 mb 0.00 in0.0 mm 0.00 in0.0 mm 0.00 in0.0 mm
12:07 AM 58.6°F14.8°C 55.4°F13.0°C 89% 7.0 mph SW11.3 kmh SW 18.0 mph29.0 kmh 29.77 in1008.1 mb 0.00 in0.0 mm 0.00 in0.0 mm 0.00 in0.0 mm
12:06 AM 58.6°F14.8°C 55.4°F13.0°C 89% 8.0 mph SW12.9 kmh SW 18.0 mph29.0 kmh 29.77 in1008.1 mb 0.00 in0.0 mm 0.00 in0.0 mm 0.00 in0.0 mm
12:05 AM 58.6°F14.8°C 55.4°F13.0°C 89% 8.0 mph SW12.9 kmh SW 18.0 mph29.0 kmh 29.77 in1008.1 mb 0.00 in0.0 mm 0.00 in0.0 mm 0.00 in0.0 mm
12:04 AM 58.6°F14.8°C 55.4°F13.0°C 89% 8.0 mph SW12.9 kmh SW 18.0 mph29.0 kmh 29.77 in1008.1 mb 0.00 in0.0 mm 0.00 in0.0 mm 0.00 in0.0 mm
12:03 AM 58.6°F14.8°C 55.4°F13.0°C 89% 9.0 mph SW14.5 kmh SW 18.0 mph29.0 kmh 29.77 in1008.1 mb 0.00 in0.0 mm 0.00 in0.0 mm 0.00 in0.0 mm
12:02 AM 58.6°F14.8°C 55.4°F13.0°C 89% 9.0 mph SW14.5 kmh SW 18.0 mph29.0 kmh 29.77 in1008.1 mb 0.00 in0.0 mm 0.00 in0.0 mm 0.00 in0.0 mm
12:01 AM 58.6°F14.8°C 55.4°F13.0°C 89% 9.0 mph SW14.5 kmh SW 18.0 mph29.0 kmh 29.77 in1008.1 mb 0.00 in0.0 mm 0.00 in0.0 mm 0.00 in0.0 mm
12:00 AM 58.6°F14.8°C 55.4°F13.0°C 89% 9.0 mph SW14.5 kmh SW 18.0 mph29.0 kmh 29.77 in1008.1 mb 0.00 in0.0 mm 0.00 in0.0 mm 0.00 in0.0 mm